This demonstration page uses our WeatherBlox Daily Observations layout. Learn more.

Hourly Observations for September 1, 2019

Temp ( °F °C ) Dew Point ( °F °C ) Humidity (%) Winds ( mph kmh ) Pressure ( in mb ) Visibility ( mi km ) Precip ( " mm )
12:15 am 00:15 Clear 62 16.5 61 16.3 99 99 SSE 5 7 30.11 1020 10 16.0934 0 0
12:35 am 00:35 Clear 62 16.5 61 16.2 98 98 Calm 30.11 1020 10 16.0934 0 0
12:55 am 00:55 Clear 62 16.5 62 16.4 99 99 S 3 6 30.11 1020 10 16.0934 0 0
1:15 am 01:15 undefined 62 16.7 62 16.5 99 99 S 3 6 30.1 1019 10 16.0934 0 0
1:35 am 01:35 Clear 62 16.7 62 16.5 99 99 S 3 6 30.1 1019 10 16.0934 0 0
1:55 am 01:55 Clear 62 16.5 61 16.3 99 99 S 5 7 30.11 1020 10 16.0934 0 0
2:15 am 02:15 Clear 62 16.5 61 16.3 99 99 S 5 7 30.1 1019 10 16.0934 0 0
2:35 am 02:35 Clear 61 16.3 61 16.3 100 100 S 5 7 30.09 1019 10 16.0934 0 0
2:55 am 02:55 Clear 61 16.2 61 16.2 100 100 S 3 6 30.08 1019 10 16.0934 0 0
3:15 am 03:15 Clear 61 16 61 16 100 100 Calm 30.08 1019 10 16.0934 0 0
3:35 am 03:35 Clear 60 15.7 60 15.7 100 100 S 3 6 30.09 1019 10 16.0934 0 0
3:55 am 03:55 Clear 60 15.7 60 15.7 100 100 S 3 6 30.09 1019 10 16.0934 0 0
4:15 am 04:15 Clear 60 15.6 60 15.6 100 100 Calm 30.08 1019 7 11.26538 0 0
4:35 am 04:35 Clear 60 15.5 60 15.5 100 100 S 3 6 30.08 1019 7 11.26538 0 0
4:55 am 04:55 Partly Cloudy 59 15.2 59 15.2 100 100 Calm 30.09 1019 7 11.26538 0 0
5:15 am 05:15 Cloudy with Mist and Fog 60 15.5 60 15.5 100 100 S 5 7 30.08 1019 0.75 1.207005 0 0
5:35 am 05:35 Cloudy with Fog 60 15.7 60 15.7 100 100 S 6 9 30.08 1019 0.5 0.80467 0 0
5:55 am 05:55 Cloudy with Mist and Fog 60 15.8 60 15.8 100 100 S 7 11 30.07 1018 1 1.60934 0 0
6:15 am 06:15 Cloudy with Mist and Fog 62 16.5 62 16.5 100 100 S 7 11 30.08 1018 4 6.43736 0 0
6:35 am 06:35 Cloudy with Mist and Fog 62 16.9 62 16.9 100 100 SSW 7 11 30.07 1018 4 6.43736 0 0
6:55 am 06:55 Cloudy with Mist and Fog 63 17.1 63 17.1 100 100 SSW 5 7 30.07 1018 1.25 2.011675 0 0
7:15 am 07:15 Cloudy with Fog 63 17.1 63 17.1 100 100 SW 6 9 30.07 1018 0.5 0.80467 0 0
7:35 am 07:35 Cloudy with Fog 63 17 63 17 100 100 SSW 8 13 30.07 1018 0.25 0.402335 0 0
7:55 am 07:55 Cloudy with Fog 63 17 63 17 100 100 SSW 5 7 30.08 1019 0.25 0.402335 0 0
8:15 am 08:15 Cloudy with Fog 63 17.1 63 17.1 100 100 SW 6 9 30.08 1019 0.25 0.402335 0 0
8:35 am 08:35 Cloudy with Fog 63 17.4 63 17.4 100 100 SW 6 9 30.08 1019 0.5 0.80467 0 0
8:55 am 08:55 Cloudy with Fog 64 17.6 64 17.6 100 100 SSW 6 9 30.07 1018 0.5 0.80467 0 0
9:15 am 09:15 Cloudy with Fog 64 17.8 64 17.8 100 100 SSW 7 11 30.07 1018 0.5 0.80467 0 0
9:35 am 09:35 Cloudy with Mist and Fog 65 18.2 65 18.2 100 100 SW 7 11 30.07 1018 0.75 1.207005 0 0
9:55 am 09:55 Cloudy with Mist and Fog 65 18.5 65 18.5 100 100 SSW 8 13 30.07 1018 1.25 2.011675 0 0
10:15 am 10:15 Cloudy with Mist and Fog 66 19 66 19 100 100 SW 6 9 30.07 1018 2.5 4.02335 0 0
10:35 am 10:35 Cloudy with Mist and Fog 67 19.5 67 19.5 100 100 SW 6 9 30.06 1018 5 8.0467 0 0
10:55 am 10:55 Cloudy with Mist and Fog 68 19.9 68 19.9 100 100 SW 6 9 30.06 1018 5 8.0467 0 0
11:15 am 11:15 Cloudy with Mist and Fog 69 20.4 69 20.4 100 100 SW 5 7 30.04 1017 3 4.82802 0 0
11:35 am 11:35 Cloudy with Mist and Fog 70 21 70 20.9 99 99 SW 5 7 30.04 1017 5 8.0467 0 0
11:55 am 11:55 Cloudy 71 21.6 69 20.6 94 94 S 5 7 30.02 1017 7 11.26538 0 0
12:15 pm 12:15 Cloudy 72 22.4 70 21 92 92 SSW 3 6 30.02 1016 10 16.0934 0 0
12:35 pm 12:35 Cloudy 73 23 70 21.1 89 89 S 7 11 30 1016 10 16.0934 0 0
12:55 pm 12:55 Cloudy 74 23.4 70 21.2 88 88 S 6 9 30.01 1016 10 16.0934 0 0
1:15 pm 13:15 Cloudy 74 23.6 70 21.3 87 87 S 6 9 30 1016 10 16.0934 0 0
1:35 pm 13:35 Cloudy 76 24.3 71 21.6 85 85 SSE 9 15 29.98 1015 10 16.0934 0 0
1:55 pm 13:55 Cloudy 77 25.1 71 21.6 81 81 SSE 9 15 29.98 1015 10 16.0934 0 0
2:15 pm 14:15 Mostly Cloudy 79 26 72 22.2 80 80 SSE 9 15 29.96 1015 10 16.0934 0 0
2:35 pm 14:35 Mostly Cloudy 80 26.9 72 22.1 75 75 SSE 14 22 29.94 1014 10 16.0934 0 0
2:55 pm 14:55 Partly Cloudy 81 27.3 72 22 73 73 SSE 9 15 29.93 1013 10 16.0934 0 0
3:15 pm 15:15 Partly Cloudy 82 28 71 21.7 69 69 SSE 14 22 29.91 1013 10 16.0934 0 0
3:35 pm 15:35 Mostly Cloudy 83 28.5 71 21.5 66 66 S 14 22 29.91 1013 10 16.0934 0 0
3:55 pm 15:55 Mostly Cloudy 82 28 71 21.5 68 68 SSE 12 19 29.91 1013 10 16.0934 0 0
4:15 pm 16:15 Partly Cloudy 82 27.9 71 21.4 68 68 SSE 16 26 29.9 1013 10 16.0934 0 0
4:35 pm 16:35 Partly Cloudy 81 27.2 71 21.6 72 72 SSE 14 22 29.91 1013 10 16.0934 0 0
4:55 pm 16:55 Partly Cloudy 80 26.8 71 21.4 72 72 SSE 15 24 29.91 1013 10 16.0934 0 0
5:15 pm 17:15 Mostly Cloudy 82 27.5 71 21.6 70 70 SSE 14 22 29.9 1012 10 16.0934 0 0
5:35 pm 17:35 Mostly Cloudy 81 27.2 71 21.6 72 72 SSE 14 22 29.91 1013 10 16.0934 0 0
5:55 pm 17:55 Mostly Cloudy 80 26.7 70 21.1 71 71 S 15 24 29.9 1013 10 16.0934 0 0
6:15 pm 18:15 Partly Cloudy 78 25.8 71 21.4 77 77 S 12 19 29.92 1013 10 16.0934 0 0
6:35 pm 18:35 Mostly Cloudy 78 25.6 71 21.5 78 78 SSE 12 19 29.92 1013 10 16.0934 0 0
6:55 pm 18:55 Mostly Cloudy 78 25.6 71 21.5 78 78 S 10 17 29.91 1013 10 16.0934 0 0
7:15 pm 19:15 Partly Cloudy 78 25.3 71 21.5 80 80 SSE 10 17 29.9 1013 10 16.0934 0 0
7:35 pm 19:35 Sunny 77 25 71 21.5 81 81 S 9 15 29.92 1013 10 16.0934 0 0
7:55 pm 19:55 Partly Cloudy 75 23.8 71 21.5 87 87 SE 6 9 29.93 1013 10 16.0934 0 0
8:15 pm 20:15 Partly Cloudy 73 23 71 21.5 91 91 SE 6 9 29.93 1014 10 16.0934 0 0
8:35 pm 20:35 Mostly Cloudy 74 23.1 71 21.6 91 91 SSE 6 9 29.93 1014 10 16.0934 0 0
8:55 pm 20:55 Cloudy 74 23.1 71 21.5 91 91 SE 6 9 29.94 1014 10 16.0934 0 0
9:15 pm 21:15 Cloudy 73 22.7 70 21.3 92 92 ESE 6 9 29.94 1014 10 16.0934 0 0
9:35 pm 21:35 Partly Cloudy 72 22 70 21.2 95 95 SE 7 11 29.95 1014 10 16.0934 0 0
9:55 pm 21:55 Partly Cloudy 71 21.7 70 21 96 96 SE 10 17 29.95 1014 10 16.0934 0 0
10:15 pm 22:15 Partly Cloudy 71 21.6 70 21 96 96 SE 6 9 29.96 1015 10 16.0934 0 0
10:35 pm 22:35 Clear 71 21.5 69 20.8 96 96 SE 3 6 29.97 1015 10 16.0934 0 0
10:55 pm 22:55 Mostly Cloudy 70 21.1 69 20.7 98 98 SSE 3 6 29.99 1016 10 16.0934 0 0
11:15 pm 23:15 Cloudy 69 20.8 69 20.5 98 98 SE 3 6 29.99 1016 10 16.0934 0 0
11:35 pm 23:35 Partly Cloudy 69 20.7 69 20.5 99 99 SE 6 9 29.99 1016 10 16.0934 0 0
11:55 pm 23:55 Clear 69 20.5 69 20.3 99 99 SSE 6 9 29.99 1016 10 16.0934 0 0

Powered by AerisWeather